SCP
0 0 0 0 0 0 0 0 0 0 0 0 0 0 0 0 0 0 0 0 0 0 0 0 0 0 0 0 0 0 0 0 0 0 0 0 0 0
0 0 0 0 0 0 0 0 0 0 0 0 0 0 0 0 0 0 0 0 0 0 0 0 0 0 0 0 0 0 0 0 0 0 0 0 0 0
0 0 0 0 0 0 0 0 0 0 0 0 0 0 0 0 0 0 0 0 0 0 0 0 0 0 0 0 0 0 0 0 0 0 0 0 0 0
0 0 0 0 0 0 0 0 0 0 0 0 0 0 0 0 0 0 0 0 0 0 0 0 0 0 0 0 0 0 0 0 0 0 0 0 0 0
0 0 0 0 0 0 0 0 0 0 0 0 0 0 0 0 0 0 0 0 0 0 0 0 0 0 0 0 0 0 0 0 0 0 0 0 0 0
0 0 0 0 0 0 0 0 0 0 0 0 0 0 0 0 0 0 0 0 0 0 0 0 0 0 0 0 0 0 0 0 0 0 0 0 0 0
0 0 0 0 0 0 0 0 0 0 0 0 0 0 0 0 0 0 0 0 0 0 0 0 0 0 0 0 0 0 0 0 0 0 0 0 0 0
0 0 0 0 0 0 0 0 0 0 0 0 0 0 0 0 0 0 0 0 0 0 0 0 0 0 0 0 0 0 0 0 0 0 0 0 0 0
0 0 0 0 0 0 0 0 0 0 0 0 0 0 0 0 0 0 0 0 0 0 0 0 0 0 0 0 0 0 0 0 0 0 0 0 0 0
0 0 0 0 0 0 0 0 0 0 0 0 0 0 0 0 0 0 0 0 0 0 0 0 0 0 0 0 0 0 0 0 0 0 0 0 0 0
0 0 0 0 0 0 0 0 0 0 0 0 0 0 0 0 0 0 0 0 0 0 0 0 0 0 0 0 0 0 0 0 0 0 0 0 0 0
0 0 0 0 0 0 0 0 0 0 0 0 0 0 0 0 0 0 0 0 0 0 0 0 0 0 0 0 0 0 0 0 0 0 0 0 0 0
0 0 0 0 0 0 0 0 0 0 0 0 0 0 0 0 0 0 0 0 0 0 0 0 0 0 0 0 0 0 0 0 0 0 0 0 0 0
0 0 0 0 0 0 0 0 0 0 0 0 0 0 0 0 0 0 0 0 0 0 0 0 0 0 0 0 0 0 0 0 0 0 0 0 0 0
0 0 0 0 0 0 0 0 0 0 0 0 0 0 0 0 0 0 0 0 0 0 0 0 0 0 0 0 0 0 0 0 0 0 0 0 0 0
0 0 0 0 0 0 0 0 0 0 0 0 0 0 0 0 0 0 0 0 0 0 0 0 0 0 0 0 0 0 0 0 0 0 0 0 0 0
0 0 0 0 0 0 0 0 0 0 0 0 0 0 0 0 0 0 0 0 0 0 0 0 0 0 0 0 0 0 0 0 0 0 0 0 0 0
0 0 0 0 0 0 0 0 0 0 0 0 0 0 0 0 0 0 0 0 0 0 0 0 0 0 0 0 0 0 0 0 0 0 0 0 0 0
0 0 0 0 0 0 0 0 0 0 0 0 0 0 0 0 0 0 0 0 0 0 0 0 0 0 0 0 0 0 0 0 0 0 0 0 0 0
0 0 0 0 0 0 0 0 0 0 0 0 0 0 0 0 0 0 0 0 0 0 0 0 0 0 0 0 0 0 0 0 0 0 0 0 0 0
0 0 0 0 0 0 0 0 0 0 0 0 0 0 0 0 0 0 0 0 0 0 0 0 0 0 0 0 0 0 0 0 0 0 0 0 0 0
0 0 0 0 0 0 0 0 0 0 0 0 0 0 0 0 0 0 0 0 0 0 0 0 0 0 0 0 0 0 0 0 0 0 0 0 0 0
0 0 0 0 0 0 0 0 0 0 0 0 0 0 0 0 0 0 0 0 0 0 0 0 0 0 0 0 0 0 0 0 0 0 0 0 0 0
Wind_Speed
2 2 1 1 0 0 1 2 2 1 1 1 1 2 2 3 4 4 5 7 8 7 7 6 6 6 6 6 6 6 6 6 5 5 5 4 2 1
1 2 2 2 1 0 1 1 1 2 1 1 1 2 2 4 5 4 5 9 9 8 7 7 6 6 6 6 6 6 6 6 6 6 6 6 6 3
2 2 2 2 2 2 2 2 2 2 3 1 2 2 3 3 3 3 5 5 5 8 8 7 7 6 6 6 6 6 6 7 7 7 7 7 7 7
2 2 3 2 2 2 2 2 2 2 3 3 2 2 2 2 2 2 4 4 5 8 8 8 7 7 7 7 7 6 6 6 7 6 7 7 7 7
2 2 2 3 3 2 2 2 2 2 3 3 2 2 1 1 1 2 4 3 5 7 8 7 7 8 7 7 7 6 6 6 6 6 6 7 7 7
3 4 4 3 3 2 2 3 2 2 2 2 2 2 1 0 1 1 2 1 2 4 4 6 7 7 7 6 5 5 5 5 5 5 5 5 6 6
3 3 4 6 7 4 3 2 2 2 2 2 2 2 1 1 0 0 1 1 1 2 2 3 3 3 3 4 4 5 5 5 5 5 5 4 4 5
3 2 3 4 5 6 6 6 4 2 1 1 2 2 1 1 1 0 1 1 0 1 1 2 2 2 3 3 5 5 5 5 4 4 4 4 4 4
3 2 2 3 3 2 4 5 5 6 4 1 2 2 2 1 0 1 0 0 1 1 1 1 2 2 2 3 7 7 6 5 5 4 4 3 3 2
2 2 2 3 4 3 3 3 4 4 3 3 2 1 1 1 1 1 1 1 1 1 1 1 1 1 2 2 6 8 7 6 6 5 4 4 3 2
2 3 2 3 5 4 3 3 2 2 3 4 3 2 1 0 0 0 0 1 1 1 0 1 1 1 1 2 3 7 7 7 6 6 5 4 3 3
2 2 4 3 3 4 2 2 1 1 1 2 1 1 1 1 0 0 0 0 0 0 0 1 1 1 1 1 2 3 3 5 6 6 6 5 4 3
1 1 2 3 3 3 2 1 0 1 0 1 1 1 1 1 0 0 0 0 1 0 1 1 1 1 1 1 1 2 3 2 3 3 5 5 5 4
1 1 1 1 1 1 1 1 2 1 0 0 1 1 1 0 0 0 0 1 1 2 2 1 1 1 1 1 1 1 2 2 2 2 2 3 4 5
1 2 1 0 1 1 1 1 0 0 0 0 0 0 0 0 0 0 1 1 1 1 1 1 1 1 1 2 1 1 1 2 2 2 2 3 3 3
1 1 1 0 0 1 1 0 0 0 0 0 1 0 0 0 0 0 0 0 1 1 0 0 1 1 2 2 1 1 1 2 2 2 2 2 2 2
0 1 1 1 1 1 1 0 0 0 0 0 1 1 1 1 1 1 1 0 0 1 1 1 1 1 1 1 2 2 2 1 1 2 2 2 2 2
1 1 1 1 1 1 1 1 1 0 0 0 0 1 1 1 1 1 1 1 1 1 1 1 1 1 1 1 1 2 2 1 1 1 1 2 2 2
0 1 1 1 0 0 0 1 0 0 0 0 0 0 1 1 1 1 1 1 1 1 2 1 1 1 2 2 2 2 1 1 1 1 2 2 2 2
1 1 0 0 0 0 1 1 0 1 0 0 0 1 1 1 1 1 1 1 1 1 2 2 1 1 2 2 2 2 2 1 1 1 2 2 1 0
1 1 0 0 0 0 0 1 1 1 0 0 0 1 1 1 1 1 1 2 2 2 2 2 2 2 2 1 1 1 1 2 2 2 2 2 2 2
1 1 1 1 0 0 0 1 1 0 1 1 1 1 2 2 2 2 2 2 2 2 2 2 2 2 1 2 2 2 1 1 2 3 3 3 2 2
1 0 0 1 1 0 0 1 1 1 1 1 1 1 2 2 2 2 2 2 2 2 2 1 1 2 2 2 3 2 3 2 2 2 2 4 7 8
Wind_Direction
10 4 350 360 351 89 137 155 162 150 142 129 100 100 117 107 120 123 118 119 119 112 105 98 91 83 72 65 62 57 51 47 46 46 43 33 25 20
36 18 12 356 341 352 148 148 112 134 143 119 99 100 101 111 113 114 118 117 114 114 109 103 98 91 83 77 73 68 62 58 57 57 54 47 45 53
31 35 16 15 16 12 28 64 82 106 124 116 109 109 97 101 120 133 131 127 118 117 114 108 103 97 90 82 78 75 70 68 66 63 60 59 58 58
41 36 22 25 31 27 25 45 84 109 124 125 120 112 94 105 130 139 129 128 128 124 119 116 114 107 96 90 86 83 78 73 69 65 64 65 65 64
53 48 37 38 35 39 41 47 58 80 109 119 119 103 95 97 114 117 116 123 130 133 127 123 121 115 106 101 96 91 86 80 75 70 67 66 66 67
61 53 41 43 37 39 57 53 60 64 91 111 115 119 108 77 86 111 114 128 120 129 126 132 131 127 118 115 109 106 103 95 88 84 79 75 72 72
70 69 62 60 58 52 60 61 70 72 90 103 105 94 85 77 50 223 121 135 124 117 132 139 143 144 143 133 125 123 119 112 106 101 97 89 85 82
63 68 83 70 70 74 71 67 68 87 78 88 103 114 109 75 7 352 118 142 205 142 145 159 149 149 151 153 153 146 140 132 126 121 115 108 100 94
49 40 42 60 60 79 92 84 64 59 66 92 106 117 134 137 182 294 320 245 176 165 142 174 152 156 162 154 161 163 164 161 156 152 148 140 132 122
64 50 43 47 36 32 85 82 72 51 51 67 80 83 112 167 213 217 194 132 115 72 84 223 195 190 165 161 178 178 179 181 183 183 180 175 175 179
73 57 62 61 32 37 72 81 75 67 74 76 78 100 103 15 302 27 200 154 189 211 213 267 213 185 181 181 187 189 192 195 198 199 199 201 203 201
78 73 60 63 43 41 67 91 85 1 49 79 82 103 141 101 54 187 277 257 217 177 266 269 216 203 207 194 186 184 202 208 210 212 211 213 217 213
80 72 55 55 57 50 47 55 305 262 241 154 143 121 93 77 86 95 316 237 261 238 187 199 255 260 236 206 204 194 193 194 200 213 216 220 222 217
49 70 91 88 95 58 37 4 353 353 285 147 114 105 121 140 278 281 271 273 232 211 207 198 235 237 250 254 252 211 201 193 185 193 195 199 220 231
62 89 111 233 179 163 170 247 331 320 301 68 204 299 348 58 79 61 357 320 288 253 198 193 222 252 242 248 248 228 225 222 208 193 189 190 202 205
109 141 178 222 245 3 37 19 208 294 276 274 309 281 235 48 12 12 264 279 353 324 13 105 223 237 255 270 248 241 227 220 202 197 211 217 210 204
237 177 164 161 179 190 186 185 212 299 290 312 20 15 16 34 352 342 319 301 302 310 3 5 327 299 216 274 279 258 249 243 216 200 208 236 230 212
110 170 169 185 196 178 190 206 195 13 316 10 33 14 6 6 359 14 7 9 1 327 293 249 259 290 304 296 264 272 269 255 243 218 218 230 244 233
205 233 208 190 194 237 272 253 214 163 272 279 228 53 338 356 14 4 4 347 329 313 301 285 260 265 279 286 287 259 259 275 259 246 239 234 246 237
226 247 266 265 261 340 351 335 276 131 164 228 345 314 290 288 299 299 281 288 300 298 300 299 292 278 274 274 282 287 253 249 258 270 277 267 264 317
193 193 204 281 283 186 249 276 247 161 123 304 323 319 309 296 298 307 322 338 320 310 309 299 289 283 275 293 298 287 282 246 234 238 270 291 287 268
205 177 163 176 191 206 240 283 285 94 59 30 8 330 316 309 305 303 317 323 305 302 309 310 309 316 315 300 299 298 281 272 278 269 253 237 238 249
199 217 177 170 161 147 18 327 347 42 51 17 351 318 307 305 297 292 293 294 299 303 308 321 324 313 298 292 295 296 293 273 259 260 266 250 240 243